Regional Weather Roundup
Issued by NWS

Home | Current Version | Previous Version | Graphics & Text | Print | Product List | Glossary On
Versions: 1 2 3 4 5 6 7 8 9 10 11 12 13 14 15 16 17 18 19 20 21 22 23 24 25 26 27 28 29 30 31 32 33 34 35 36 37 38 39 40 41 42 43 44 45 46 47 48 49 50
000
ASUS43 KOAX 231310
RWRNE

WEATHER ROUNDUP FOR NEBRASKA
NATIONAL WEATHER SERVICE OMAHA NE
800 AM CDT SAT JUL 23 2016

NOTES: SATELLITE DATA IS BEING USED TO AUGMENT CLOUD COVER ABOVE
       12000 FEET.
       "FAIR" INDICATES FEW OR NO CLOUDS BELOW 12,000 FEET WITH NO
       SIGNIFICANT WEATHER AND/OR OBSTRUCTIONS TO VISIBILITY.

  * THESE STATIONS DO NOT REPORT WEATHER SUCH AS RAIN...SNOW OR FOG.

NEZ001>004-019>022-054>056-231400-
NEBRASKA PANHANDLE

CITY           SKY/WX    TMP DP  RH WIND       PRES   REMARKS
SCOTTSBLUFF    SUNNY     66  61  84 CALM      29.96R
ALLIANCE       CLOUDY    67  65  93 S7        29.94R
CHADRON        SUNNY     67  61  81 W6        29.88R
KIMBALL        CLOUDY    69  59  70 SW6       30.05R
SIDNEY         CLOUDY    72  62  71 SW10      30.03R
$$

NEZ057>060-069>072-079>082-231400-
SOUTHWEST NEBRASKA

CITY           SKY/WX    TMP DP  RH WIND       PRES   REMARKS
NORTH PLATTE   CLOUDY    73  66  78 SW9       29.90R
IMPERIAL       CLOUDY    73  64  73 SW5       29.95R
LEXINGTON      PTSUNNY   76  64  65 S15G22    29.85R
MCCOOK         CLOUDY    77  64  64 S12       29.88R
OGALLALA       CLOUDY    70  66  87 SW3       29.95S
$$

NEZ005>010-023>029-035>040-094-231400-
NORTH CENTRAL NEBRASKA

CITY           SKY/WX    TMP DP  RH WIND       PRES   REMARKS
VALENTINE      SUNNY     72  64  76 SW12      29.82S
AINSWORTH      MOSUNNY   69  66  89 SE3       29.83S
BROKEN BOW     MOSUNNY   70  68  93 CALM      29.85S
O`NEILL        CLOUDY    73  68  84 S6        29.85R
ORD            CLOUDY    75  66  73 E6        29.85R
THEDFORD       SUNNY     71  66  85 SW8       29.88R
$$

NEZ041-046>049-061>064-073>077-083>087-231400-
SOUTH CENTRAL NEBRASKA

CITY           SKY/WX    TMP DP  RH WIND       PRES   REMARKS
GRAND ISLAND   CLOUDY    74  69  85 S7        29.86R
AURORA         MOSUNNY   75  71  86 SE9       29.86S
HASTINGS       CLOUDY    75  68  78 S15G22    29.85F
HEBRON         PTSUNNY   77  68  73 S9        29.89F
HOLDREGE       CLOUDY    73  65  74 S10       29.87R
KEARNEY *      CLOUDY    77  64  65 SW14G21   29.84R
YORK           CLOUDY    75  72  88 CALM      29.87S
$$

NEZ011>018-030>034-042>045-231400-
NORTHEAST NEBRASKA

CITY           SKY/WX    TMP DP  RH WIND       PRES   REMARKS
NORFOLK        CLOUDY    73  70  90 SE5       29.86R
ALBION         CLOUDY    73  69  86 SE3       29.86R
BLAIR          CLOUDY    81  71  71 S14G22    29.85F
FREMONT        CLOUDY    78  70  75 S9        29.85F
TEKAMAH        CLOUDY    79  73  82 S9        29.84S
WAYNE          CLOUDY    76  74  94 CALM      29.87R
$$

NEZ050>053-065>068-078-088>093-231400-
SOUTHEAST NEBRASKA

CITY           SKY/WX    TMP DP  RH WIND       PRES   REMARKS
LINCOLN        CLOUDY    80  71  74 S12       29.86F
OMAHA EPPLEY   CLOUDY    83  69  62 S10       29.84F
BEATRICE       CLOUDY    78  68  69 SE8       29.89F
FALLS CITY     CLOUDY    80  73  79 S8        29.92S
NEBRASKA CITY  LGT RAIN  76  72  86 SW9       29.89F
PLATTSMOUTH    CLOUDY    80  69  69 S14G20    29.87F
$$

NEZ044-045-051>053-067-231400-
OMAHA AREA

CITY           SKY/WX    TMP DP  RH WIND       PRES   REMARKS
OMAHA EPPLEY   CLOUDY    83  69  62 S10       29.84F
BLAIR          CLOUDY    81  71  71 S14G22    29.85F
FREMONT        CLOUDY    78  70  75 S9        29.85F
MILLARD        CLOUDY    82  71  68 S6        29.85F
OFFUTT AFB     PTSUNNY   80  70  71 S10       29.85F
PLATTSMOUTH    CLOUDY    80  69  69 S14G20    29.87F
WAHOO          FAIR      78  71  79 S9        29.85F
$$




USA.gov is the U.S. government's official web portal to all federal, state and local government web resources and services.